Home > Weather > Wardha > Past weeks

Flag for India Past Weather in Wardha, Maharashtra, India — Yesterday and Last 2 Weeks

Now
84 °F

Scattered clouds.


Feels Like: 94 °F
Forecast: 78 / 89 °F
Wind: No wind

Location: Nagpur Sonegaon

Current Time: Jul 24, 2016 at 10:34:35 AM

Latest Report: Jul 24, 2016 at 10:00 AM


Visibility: 2 mi

Pressure: 29.71 "Hg

Humidity: 79%

Dew Point: 77 °F

Location of WardhaLocation

Past Weather in Wardha — Graph

°F

Wardha Temperature Yesterday

Maximum temperature yesterday: 88 °F (at 12:00 PM)
Minimum temperature yesterday: 77 °F (at 4:30 AM)
Average temperature yesterday: 82 °F

High & Low Weather Summary for the Past Weeks

 TemperatureHumidityPressure
High102 °F (Jul 15, 11:00 AM)100% (Jul 12, 5:00 PM)29.83 "Hg (Jul 12, 5:00 PM)
Low73 °F (Jul 12, 5:00 PM)42% (Jul 15, 11:00 AM)29.42 "Hg (Jul 10, 3:30 PM)
Average82 °F83%29.64 "Hg
* Reported Jul 9 9:30 AM — Jul 24 9:30 AM, Wardha, Weather by CustomWeather, © 2016

Note: Actual official high and low records may vary slightly from our data, if they occured in-between our weather recording intervals... More about our weather records

Advertising

Wardha Weather History for the Previous 24 Hours

Scroll right to see more
 ConditionsComfort  
Time TempWeatherWind HumidityBarometerVisibility
9:30 AM
Sun, Jul 24
84 °FScattered clouds.No wind79%29.71 "Hg2 mi
9:00 AM86 °FScattered clouds.No wind75%29.71 "Hg2 mi
8:30 AM82 °FScattered clouds.2 mph89%29.68 "Hg2 mi
8:00 AM82 °FBroken clouds.No wind89%29.68 "Hg2 mi
7:30 AM81 °FBroken clouds.No wind89%29.68 "Hg2 mi
7:00 AM79 °FBroken clouds.No wind89%29.65 "Hg2 mi
6:30 AM79 °FBroken clouds.No wind89%29.65 "Hg2 mi
6:00 AM79 °FPartly cloudy.No wind94%29.65 "Hg2 mi
5:00 AM79 °FPartly cloudy.No wind94%29.65 "Hg2 mi
4:00 AM79 °FPartly cloudy.No wind94%29.65 "Hg2 mi
3:30 AM79 °FPartly cloudy.No wind94%29.65 "Hg2 mi
3:00 AM79 °FPartly cloudy.No wind94%29.65 "Hg2 mi
2:30 AM79 °FPartly cloudy.No wind94%29.65 "Hg2 mi
2:00 AM79 °FPartly cloudy.No wind94%29.65 "Hg2 mi
1:30 AM79 °FPartly cloudy.No wind94%29.68 "Hg2 mi
1:00 AM79 °FPartly cloudy.No wind94%29.68 "Hg2 mi
12:30 AM79 °FPartly cloudy.No wind94%29.68 "Hg2 mi
12:00 AM81 °FPartly cloudy.No wind89%29.68 "Hg2 mi
11:30 PM
Sat, Jul 23
81 °FPartly cloudy.No wind89%29.68 "Hg2 mi
11:00 PM81 °FPartly cloudy.No wind89%29.68 "Hg2 mi
10:30 PM81 °FPartly cloudy.No wind89%29.68 "Hg2 mi
10:00 PM81 °FPartly cloudy.No wind89%29.68 "Hg2 mi
9:30 PM81 °FPartly cloudy.2 mph89%29.68 "Hg2 mi
9:00 PM82 °FPartly cloudy.2 mph84%29.65 "Hg2 mi
8:30 PM82 °FPartly cloudy.2 mph84%29.65 "Hg2 mi
8:00 PM82 °FPartly cloudy.No wind84%29.65 "Hg2 mi
7:30 PM82 °FPartly cloudy.No wind84%29.65 "Hg2 mi
7:00 PM82 °FBroken clouds.No wind84%29.65 "Hg2 mi
6:00 PM82 °FBroken clouds.6 mph84%29.62 "Hg2 mi
5:30 PM82 °FBroken clouds.5 mph84%29.59 "Hg2 mi
5:00 PM84 °FBroken clouds.5 mph84%29.59 "Hg2 mi
4:30 PM84 °FLight rain. Broken clouds.9 mph79%29.59 "Hg2 mi
4:00 PM84 °FLight rain. Broken clouds.6 mph84%29.59 "Hg2 mi
3:30 PM84 °FBroken clouds.2 mph84%29.59 "Hg2 mi
3:00 PM84 °FBroken clouds.2 mph89%29.59 "Hg2 mi
2:30 PM82 °FLight rain. Broken clouds.3 mph89%29.62 "Hg2 mi
1:30 PM86 °FLight rain. Broken clouds.7 mph75%N/A2 mi
12:30 PM88 °FBroken clouds.2 mph66%29.65 "Hg3 mi
12:00 PM88 °FBroken clouds.5 mph70%29.65 "Hg3 mi
11:30 AM86 °FBroken clouds.7 mph75%29.65 "Hg3 mi
11:00 AM86 °FBroken clouds.5 mph75%29.65 "Hg3 mi
10:30 AM86 °FBroken clouds.6 mph79%29.68 "Hg3 mi
10:00 AM84 °FBroken clouds.6 mph79%29.68 "Hg3 mi
Weather by CustomWeather, © 2016

See weather overviewHow to use our weather pages